MST,Max TemperatureF,Mean TemperatureF,Min TemperatureF,Max Dew PointF,MeanDew PointF,Min DewpointF,Max Humidity, Mean Humidity, Min Humidity, Max Sea Level PressureIn, Mean Sea Level PressureIn, Min Sea Level PressureIn, Max VisibilityMiles, Mean VisibilityMiles, Min VisibilityMiles, Max Wind SpeedMPH, Mean Wind SpeedMPH, Max Gust SpeedMPH,PrecipitationIn, CloudCover, Events, WindDirDegrees
2014-2-1,30,26,21,25,21,18,93,82,69,30.11,29.99,29.89,15,10,4,10,4,,0.00,6,Snow,304
2014-2-2,30,24,17,25,18,12,93,80,55,30.09,30.02,29.92,15,12,9,9,1,,0.00,3,,216
2014-2-3,37,26,15,25,17,9,93,80,41,29.93,29.87,29.80,15,12,10,6,1,,0.00,2,,184
2014-2-4,28,20,12,23,18,9,100,82,69,30.12,29.94,29.81,15,9,1,15,5,,0.00,6,Snow,291
2014-2-5,26,16,6,16,11,3,100,78,55,30.12,30.07,29.99,15,11,10,6,2,,0.00,4,,243
2014-2-6,35,26,17,30,19,12,100,83,60,29.99,29.92,29.83,15,8,2,6,1,,0.00,8,Snow,221
2014-2-7,39,34,28,32,30,28,100,84,65,29.94,29.87,29.82,15,9,2,14,3,17,0.00,7,,110
2014-2-8,42,40,37,39,33,28,100,77,61,30.07,29.98,29.90,15,11,7,16,7,18,0.05,8,Rain,134
2014-2-9,42,37,32,39,35,30,100,87,70,30.08,30.03,30.01,15,9,0,8,3,,0.08,8,Rain,18
2014-2-10,41,34,28,36,32,27,100,91,65,30.23,30.09,29.97,15,6,1,8,3,,0.31,6,Fog,245
2014-2-11,42,33,24,30,26,23,100,85,61,30.25,30.21,30.15,15,10,7,7,2,,0.00,2,,292
2014-2-12,42,35,28,34,30,25,100,85,70,30.24,30.17,30.06,15,10,0,7,2,,0.00,5,,206
2014-2-13,51,43,35,39,35,30,100,84,54,30.14,30.10,30.04,15,11,5,12,4,,0.01,7,Rain,306
2014-2-14,46,40,35,39,36,34,93,86,76,30.16,30.09,30.01,15,11,10,8,3,,0.01,6,,170
2014-2-15,51,43,35,39,34,30,93,80,50,30.09,30.00,29.93,15,12,10,8,3,,0.00,3,,56
2014-2-16,53,42,28,34,30,25,93,69,41,30.30,29.99,29.84,15,11,10,24,5,34,0.00,3,,113
2014-2-17,46,35,24,30,25,21,100,81,49,30.28,30.12,29.95,15,11,10,9,3,,0.00,2,,172
2014-2-18,50,39,28,28,24,19,80,64,32,30.15,30.04,29.96,15,11,10,13,4,,0.00,2,,320
2014-2-19,44,36,28,28,22,14,86,66,41,30.12,29.93,29.78,15,11,10,25,6,34,0.00,3,,334
2014-2-20,41,32,23,25,16,10,80,58,31,30.29,30.18,30.12,15,11,10,15,9,,0.00,2,,298
2014-2-21,48,36,24,25,21,18,86,65,32,30.16,30.08,29.98,15,11,10,7,2,,0.00,2,,183
2014-2-22,48,36,24,25,18,-101,86,65,4,30.01,29.98,29.95,15,12,10,6,1,,0.00,2,,153
2014-2-23,57,40,24,27,23,19,80,65,25,30.10,30.04,30.00,15,12,10,7,2,,0.00,0,,154
2014-2-24,57,42,26,28,24,19,86,63,23,30.12,30.05,30.03,15,12,10,9,2,,0.00,2,,264
2014-2-25,60,44,28,32,27,23,86,69,27,30.08,30.04,29.98,15,12,10,10,3,,0.00,1,,248
2014-2-26,62,46,30,34,29,25,93,68,34,30.08,29.99,29.86,15,12,10,6,2,,0.00,2,,193
2014-2-27,48,40,33,41,34,28,93,76,53,29.87,29.80,29.66,15,10,3,21,5,25,0.01,7,,131
2014-2-28,50,39,28,39,34,27,100,86,43,29.85,29.76,29.60,15,10,0,12,2,,0.11,4,Rain,125